Probability
10 10 6 3 3 0 0 0 0 0 0 0 0 0 0 3 3 0 0 0 0 0 0 0 0 0 0 3 0 0 0 0 0 0 0 0 0 0
6 6 10 6 6 6 0 0 0 0 0 0 0 0 3 3 3 0 0 3 0 0 0 0 0 0 0 0 0 0 0 0 0 0 0 0 0 0
6 10 10 6 6 6 3 3 0 0 0 0 0 3 3 3 3 3 3 3 3 0 0 0 0 0 0 0 0 0 0 0 0 0 0 0 0 0
6 6 6 10 6 3 3 3 3 3 3 3 3 3 3 3 3 3 3 3 3 3 0 0 0 0 0 0 0 0 0 0 0 0 0 0 0 0
10 10 10 10 10 10 3 3 3 3 3 3 3 3 3 3 3 3 3 3 3 3 3 3 0 0 0 0 0 0 0 0 0 0 0 0 0 0
13 13 6 6 6 6 6 6 6 6 6 6 6 3 3 3 3 3 3 3 3 3 3 3 0 0 0 0 0 0 0 0 0 0 0 0 0 0
6 3 6 6 6 6 6 6 6 6 6 6 6 6 3 3 3 3 3 3 3 3 3 6 6 3 3 0 0 0 0 0 0 0 0 0 0 0
10 3 3 3 3 0 3 3 3 6 6 6 6 6 3 3 3 3 3 3 3 0 3 6 6 3 3 3 0 0 0 0 0 0 0 0 0 0
10 6 6 6 3 6 3 0 0 0 3 6 6 6 6 3 3 3 3 3 3 0 0 6 3 6 3 6 3 0 0 0 0 0 0 0 0 0
6 6 6 6 3 6 6 6 3 0 0 0 0 3 3 0 3 3 3 3 3 0 3 6 6 3 3 3 3 0 0 0 0 0 0 0 0 0
10 10 6 6 3 3 3 3 3 3 0 0 0 0 0 0 0 0 3 3 3 3 3 3 3 3 3 3 0 0 0 0 0 0 0 0 0 0
6 6 6 3 3 0 3 3 3 3 3 3 0 0 0 0 0 0 0 3 3 3 3 0 3 0 0 0 0 0 0 0 0 0 0 0 0 0
3 3 3 3 0 0 0 3 3 3 3 3 3 3 0 0 0 0 0 0 3 3 3 0 0 0 0 0 0 0 0 0 0 0 0 0 0 0
3 3 3 3 0 0 0 3 3 0 3 3 3 0 0 0 0 0 0 0 0 3 3 0 0 0 0 0 0 0 0 0 0 0 0 0 0 0
0 3 3 0 0 0 0 0 0 0 3 0 0 0 0 0 0 0 0 3 0 3 3 3 3 0 0 0 0 0 0 0 0 0 0 0 0 0
0 0 0 0 0 0 0 0 0 0 0 0 0 0 0 0 0 0 0 0 3 3 0 0 0 0 0 0 0 0 0 0 0 0 0 0 0 0
0 0 0 0 0 0 0 0 0 0 0 0 0 0 0 0 0 0 0 0 0 0 0 0 0 0 0 0 0 0 0 0 0 0 0 0 0 0
0 0 0 0 0 0 0 0 0 0 0 0 0 0 0 0 0 0 0 0 0 0 0 0 0 0 0 0 0 0 0 0 0 0 0 0 0 0
0 0 0 0 0 0 0 0 0 0 0 0 0 0 0 0 0 0 0 0 0 0 0 0 0 0 0 0 0 0 0 0 0 0 0 0 0 0
0 0 0 0 0 0 0 0 0 0 0 0 0 0 0 0 0 0 0 0 0 0 0 0 0 0 0 0 0 0 0 0 0 0 0 0 0 0
0 0 0 0 0 0 0 0 0 0 0 0 0 0 0 0 0 0 0 0 0 0 0 0 0 0 0 0 0 0 0 0 0 0 0 0 0 0
0 0 0 0 0 0 0 0 0 0 0 0 0 0 0 0 0 0 0 0 0 0 0 0 0 0 0 0 0 0 0 0 0 0 0 0 0 0
0 0 0 0 0 0 0 0 0 0 0 0 0 0 0 0 0 0 0 0 0 0 0 0 0 0 0 0 0 0 0 0 0 0 0 0 0 0
Height
5839 5839 5838 5838 5837 5837 5836 5836 5835 5834 5834 5832 5833 5833 5833 5832 5832 5832 5831 5831 5831 5831 5830 5830 5829 5829 5828 5827 5826 5825 5824 5823 5822 5821 5820 5819 5818 5817
5836 5836 5835 5835 5834 5833 5832 5832 5831 5831 5830 5830 5829 5829 5829 5829 5828 5828 5827 5827 5827 5827 5827 5826 5825 5824 5823 5823 5822 5821 5820 5818 5817 5816 5815 5814 5813 5811
5833 5832 5832 5831 5830 5829 5829 5828 5827 5827 5826 5826 5825 5825 5825 5825 5824 5824 5823 5823 5823 5822 5822 5821 5821 5820 5819 5818 5817 5816 5814 5813 5812 5810 5809 5808 5806 5805
5829 5828 5828 5827 5826 5826 5825 5825 5824 5823 5823 5822 5821 5821 5820 5820 5820 5819 5818 5818 5818 5817 5817 5816 5815 5814 5813 5812 5811 5810 5808 5807 5806 5804 5803 5801 5800 5798
5825 5824 5824 5823 5822 5822 5821 5821 5820 5819 5819 5818 5817 5816 5815 5815 5814 5814 5813 5813 5812 5812 5811 5810 5809 5809 5807 5806 5805 5803 5802 5801 5799 5798 5796 5794 5792 5790
5820 5820 5819 5819 5818 5817 5817 5816 5815 5815 5814 5813 5812 5811 5810 5809 5808 5808 5807 5807 5807 5806 5805 5804 5803 5802 5801 5799 5798 5797 5795 5794 5792 5790 5788 5786 5784 5782
5815 5815 5814 5814 5813 5813 5812 5811 5810 5810 5809 5807 5806 5805 5804 5803 5803 5802 5801 5801 5800 5799 5798 5798 5797 5795 5794 5792 5791 5789 5788 5786 5784 5782 5780 5778 5776 5774
5809 5809 5808 5808 5808 5807 5807 5806 5805 5804 5803 5802 5801 5800 5798 5797 5796 5795 5795 5794 5793 5793 5792 5791 5789 5788 5786 5785 5783 5782 5780 5778 5776 5774 5772 5769 5767 5765
5803 5803 5802 5802 5801 5801 5800 5800 5799 5798 5797 5796 5795 5793 5792 5791 5789 5788 5787 5786 5786 5785 5784 5783 5781 5780 5778 5776 5775 5773 5771 5769 5767 5765 5762 5760 5758 5756
5797 5796 5796 5795 5795 5794 5794 5793 5792 5792 5790 5789 5788 5786 5785 5783 5782 5781 5780 5779 5778 5776 5776 5775 5773 5771 5770 5768 5766 5764 5762 5760 5758 5755 5753 5751 5749 5746
5790 5789 5789 5788 5788 5787 5787 5786 5785 5784 5783 5782 5780 5779 5777 5776 5775 5773 5772 5771 5770 5769 5767 5766 5764 5763 5760 5758 5756 5754 5752 5750 5748 5745 5743 5741 5739 5737
5782 5782 5782 5781 5781 5780 5779 5779 5778 5777 5775 5774 5773 5771 5770 5769 5767 5765 5764 5762 5761 5760 5759 5757 5755 5753 5751 5749 5746 5744 5742 5740 5737 5735 5733 5731 5729 5727
5774 5774 5774 5773 5773 5772 5772 5771 5770 5769 5767 5766 5765 5763 5762 5760 5758 5757 5755 5753 5752 5751 5750 5747 5745 5743 5741 5739 5737 5735 5732 5730 5728 5726 5724 5722 5720 5718
5766 5766 5766 5765 5765 5764 5763 5763 5762 5761 5759 5758 5757 5755 5753 5752 5750 5748 5746 5744 5743 5741 5739 5737 5735 5733 5732 5730 5728 5726 5723 5721 5719 5717 5715 5713 5711 5709
5758 5758 5758 5757 5756 5756 5755 5754 5753 5752 5751 5749 5748 5746 5745 5743 5741 5739 5737 5735 5733 5731 5729 5727 5725 5723 5722 5720 5718 5716 5714 5712 5710 5708 5706 5704 5702 5700
5750 5750 5749 5748 5748 5747 5746 5745 5744 5743 5742 5740 5739 5737 5735 5733 5732 5730 5728 5726 5724 5722 5719 5717 5715 5714 5712 5710 5709 5707 5705 5703 5701 5698 5697 5695 5693 5691
5741 5741 5740 5739 5738 5737 5736 5735 5734 5734 5732 5731 5729 5728 5726 5724 5722 5720 5719 5717 5715 5713 5711 5708 5706 5704 5702 5701 5699 5697 5695 5693 5691 5689 5688 5686 5684 5682
5731 5731 5731 5730 5729 5728 5727 5726 5725 5724 5723 5721 5720 5718 5717 5715 5713 5711 5709 5707 5705 5703 5701 5699 5697 5695 5693 5691 5689 5687 5685 5684 5682 5680 5679 5677 5675 5673
5722 5722 5721 5721 5719 5718 5718 5717 5716 5714 5713 5712 5710 5709 5707 5706 5704 5702 5700 5698 5696 5694 5692 5690 5688 5686 5684 5682 5680 5678 5676 5674 5673 5671 5669 5668 5666 5664
5712 5712 5712 5711 5710 5709 5708 5707 5706 5705 5703 5702 5701 5699 5698 5696 5694 5693 5691 5689 5687 5685 5683 5681 5679 5677 5675 5673 5671 5669 5667 5665 5663 5662 5660 5659 5657 5655
5704 5703 5702 5702 5701 5700 5699 5697 5696 5695 5694 5693 5691 5690 5688 5687 5685 5683 5681 5679 5678 5676 5674 5672 5670 5668 5666 5664 5663 5661 5659 5656 5655 5653 5651 5650 5649 5647
5695 5694 5693 5692 5691 5690 5689 5688 5687 5686 5685 5683 5682 5681 5679 5678 5676 5674 5672 5670 5669 5667 5665 5663 5661 5659 5657 5656 5654 5652 5651 5649 5646 5644 5642 5641 5639 5638
5685 5685 5684 5683 5682 5680 5679 5678 5677 5676 5675 5674 5673 5671 5670 5668 5667 5665 5663 5661 5659 5658 5656 5654 5653 5651 5649 5647 5645 5644 5642 5640 5638 5636 5634 5632 5630 5629
Wind_Speed
9 9 9 9 10 10 10 10 10 10 10 10 11 11 12 12 12 13 13 13 13 13 12 12 13 14 14 14 14 15 15 15 16 16 17 18 18 19
10 11 10 10 10 11 11 11 11 11 11 11 12 13 13 14 13 14 14 14 14 14 14 15 15 16 16 16 16 17 17 18 19 19 19 20 20 21
11 11 11 12 11 12 12 12 12 12 13 13 13 14 15 15 15 15 15 15 15 16 17 17 18 18 19 18 19 19 19 19 20 21 21 22 22 23
12 12 12 12 12 12 12 12 12 13 13 14 15 16 17 18 17 17 16 17 17 18 19 20 20 20 20 20 21 21 22 22 22 23 24 25 25 25
14 14 14 13 13 13 13 14 14 14 14 15 15 17 18 18 18 19 19 19 19 20 20 21 22 22 22 23 23 23 23 23 24 25 25 26 27 27
16 15 15 15 15 15 15 15 15 15 15 15 16 16 17 18 19 20 21 21 21 22 22 23 23 23 24 24 24 25 25 25 26 26 27 26 27 27
17 17 17 17 17 17 17 17 17 17 17 17 18 18 19 20 20 22 22 23 23 24 24 24 24 25 26 26 26 26 27 27 27 28 28 28 28 28
19 18 19 19 19 19 19 18 18 18 18 19 20 21 21 21 22 23 23 24 25 25 26 25 25 26 27 28 28 28 28 28 29 29 29 29 30 30
20 20 20 20 20 20 20 20 20 20 21 21 21 22 22 23 23 24 25 25 26 26 26 27 28 28 28 28 28 28 29 29 30 30 31 31 31 31
21 21 22 22 22 22 22 22 22 22 23 23 23 22 23 24 24 26 26 26 27 27 28 28 28 29 29 30 30 31 31 31 32 32 32 33 33 32
22 22 22 23 23 23 24 24 24 24 24 24 24 24 23 24 26 26 26 27 27 27 28 29 29 30 31 32 32 32 33 33 33 33 33 33 33 33
23 23 24 24 24 24 24 25 25 25 25 25 26 26 26 26 26 27 28 28 29 29 29 30 30 30 30 31 32 32 32 33 33 33 33 32 32 32
24 24 24 24 25 25 24 24 24 25 25 26 27 28 28 28 29 29 29 30 30 30 30 31 31 31 31 31 31 32 31 31 31 31 31 31 31 31
24 24 25 25 26 26 26 26 26 27 27 27 28 29 29 30 30 30 30 31 31 31 31 31 31 31 31 31 31 30 31 30 30 30 30 30 30 30
26 26 26 27 28 28 28 28 28 28 28 29 29 29 30 30 30 30 30 29 30 30 30 31 31 31 31 30 30 30 30 30 30 30 30 30 30 30
27 27 28 28 29 29 29 29 30 29 29 29 30 31 31 31 30 29 29 28 28 28 29 30 31 31 31 31 31 31 31 30 30 30 30 30 31 30
28 28 28 28 29 29 29 29 30 30 30 30 31 31 31 31 30 29 29 28 28 28 28 29 30 30 31 31 31 31 31 30 30 30 30 30 30 31
29 28 28 29 29 30 29 30 30 30 30 31 31 31 30 29 29 28 28 28 28 28 28 29 29 29 30 30 30 30 30 30 30 30 30 30 30 30
29 29 29 29 29 29 30 30 30 30 30 30 30 30 29 29 29 28 28 29 28 28 28 29 29 29 29 29 29 29 29 29 29 30 30 30 29 29
29 29 29 29 29 29 30 30 30 30 30 30 29 28 28 28 28 29 29 29 28 28 28 29 29 29 29 29 28 28 28 29 29 29 28 28 28 29
28 28 28 29 28 28 29 29 30 30 29 29 28 28 28 28 28 28 29 29 29 28 28 28 28 28 28 29 28 27 27 28 28 28 28 28 28 28
28 28 28 28 28 28 28 29 29 29 28 28 28 28 28 28 28 28 28 28 28 28 28 28 28 28 28 28 28 27 27 27 27 27 27 28 28 28
27 27 28 28 28 28 28 28 28 28 28 28 28 28 28 28 27 27 27 27 27 27 27 27 28 28 28 28 27 27 27 27 27 27 26 26 27 27
Wind_Direction
289 283 285 286 288 291 290 288 284 283 278 271 261 262 266 266 268 268 267 269 271 269 270 273 273 274 276 276 277 279 281 282 283 283 284 284 283 283
285 285 282 284 288 290 289 286 284 279 275 270 266 264 266 268 267 266 267 268 271 272 273 274 273 276 280 280 281 281 282 282 282 283 284 284 284 284
287 289 284 282 283 288 286 285 286 284 279 273 270 267 267 269 269 269 269 269 272 273 273 276 277 278 278 279 281 282 283 283 283 283 283 284 284 284
284 285 285 281 279 283 285 286 287 286 282 277 275 271 269 269 268 269 271 272 273 275 275 276 277 279 278 278 281 281 282 283 284 284 283 283 283 284
280 281 282 281 278 278 278 282 284 284 284 282 280 278 274 272 271 269 270 273 273 275 276 276 277 278 280 279 280 281 281 283 284 284 285 284 284 284
278 278 280 276 275 274 276 281 282 282 284 285 285 283 279 276 275 273 270 272 275 275 275 276 277 278 280 280 280 280 282 283 283 284 285 285 285 285
275 275 276 274 273 273 276 278 280 282 283 285 286 285 282 279 278 276 274 274 275 276 276 277 279 279 279 280 281 282 283 283 284 285 286 286 286 286
272 272 273 275 273 272 274 275 277 280 281 282 283 283 281 279 279 278 275 275 276 276 277 278 280 282 282 280 281 281 283 285 285 285 285 285 285 286
271 269 271 273 274 273 273 274 276 279 280 281 281 281 281 280 280 279 279 278 278 278 278 279 280 282 283 282 281 282 283 284 284 285 284 284 285 285
271 270 271 272 275 274 272 273 275 277 278 281 281 283 283 282 282 281 280 279 279 280 281 282 282 283 282 282 283 284 284 283 283 284 284 284 284 285
271 270 271 272 274 274 273 274 276 278 279 281 281 282 284 285 285 284 282 281 281 282 283 285 285 285 283 283 283 284 285 284 284 284 285 284 284 284
270 270 270 271 271 273 274 275 276 277 278 279 281 282 283 283 285 285 284 284 284 284 284 285 286 287 287 285 285 285 285 284 284 284 284 285 284 283
272 271 272 273 273 273 274 276 277 279 280 280 281 282 283 283 285 285 285 285 285 285 285 285 286 287 287 286 285 286 286 286 286 286 285 284 284 284
271 272 272 273 275 274 275 276 278 279 280 280 281 283 284 285 285 285 285 286 286 285 285 285 286 287 287 287 286 286 287 285 285 285 286 287 286 286
271 272 273 274 275 277 277 278 279 278 278 280 282 283 284 285 284 284 286 287 287 286 285 285 286 287 288 288 287 286 286 285 284 285 286 286 285 285
271 272 274 274 276 279 279 278 279 279 280 281 281 283 285 287 287 286 287 288 288 288 287 288 289 289 288 287 286 286 285 283 283 284 285 286 285 285
271 272 274 275 276 277 278 278 278 278 280 282 283 285 286 287 287 286 287 287 287 286 286 288 289 288 288 287 286 285 284 284 284 284 285 285 285 285
271 272 273 274 275 276 278 278 278 279 280 281 283 285 285 284 284 285 286 287 287 286 286 286 287 287 288 289 288 286 285 284 284 284 284 284 284 283
271 273 274 275 276 276 277 278 278 280 281 282 283 283 283 283 284 284 285 286 286 285 286 286 287 287 288 289 288 287 287 286 285 285 285 284 282 282
271 273 275 276 276 277 277 277 278 279 280 281 282 283 284 284 283 284 284 286 285 285 285 287 288 288 288 289 288 286 286 287 287 286 284 284 283 284
272 273 275 275 275 276 277 277 277 278 278 280 282 283 284 284 284 285 286 286 285 285 286 286 287 287 288 289 288 286 286 287 288 288 285 285 285 284
272 272 274 275 275 275 276 276 277 278 279 280 281 282 282 283 285 286 286 286 286 286 286 287 286 286 288 288 287 286 286 287 289 290 288 287 286 285
273 273 274 275 276 276 276 277 279 279 280 280 280 280 280 282 284 285 285 286 287 286 285 286 286 285 286 287 287 286 286 287 288 289 289 289 288 288